Погода в Куллу

Индия     31°57′36″N   77°06′59″E
темп.,
°C
ветер,
м/с
пор.,
м/с
влажн.,
%
обл.,
%
осадки,
мм/ч
давл.,
гПа
погр.,
м
21 апреля, ср
ср2123:30+6св3381100 1.8 1016155
02:30+5ссв3492100 3.6 1015189
05:30+6ююз1189100 4.5 101475
08:30+4с3494100 15.3 1016191
11:30+6с4590100 23.5 1016202
14:30+10с2277100 2.4 1012312
17:30+5всв2294100 15.1 101490
20:30+4ссв4591100 9.8 1016136
22 апреля, чт
чт2223:30+5с4381100 10.3 101538
02:30+4ссз3283100 0.3 101628
05:30+4св3392100 2.5 101890
08:30+6ссв228697 0.9 1018194
11:30+10сз1267100 1.9 1017878
14:30+6сз3385100 2.4 1018279
17:30+7ссв238133 3.6 1016265
20:30+4ссв4484100 2.5 101968
23 апреля, пт
пт2323:30+3св4487100 6.1 1021123
02:30+2ссв558597 2.2 101984
05:30+4ссв5686100 4.8 1018160
08:30+5ссв3492100 5.3 1020137
11:30+6ссз2289100 8.1 1020189
14:30+12сз226755 2.7 1014525
17:30+8юв2486100 4.9 1014124
20:30+4ссв4594100 4.8 1019188
24 апреля, сб
сб2423:30+5с5683100 7.8 101782
02:30+4ссв5483100 2.6 101563
05:30+5с6684100 5.4 1016115
08:30+9с1171100 0.2 1016199
11:30+13зюз225543 0.3 10161169
14:30+15ююз214817 0.2 10141944
17:30+12с017295 0.9 1015195
20:30+6с54700 0.0 102052
25 апреля, вс
вс2523:30+5ссв54660 0.0 102156
02:30+5с54590 0.0 102055
05:30+5ссв54550 0.0 101959
08:30+13сз12460 0.0 1017303
11:30+17юз21341 0.0 10161396
14:30+18юз223786 0.0 10141910
17:30+16з01533 0.0 1014262
20:30+9с546291 0.0 101857